Year,Month,Day,Hour,Minute,Value (Times are PST for temperature in C)
2020,07,05,00,00,11.60
2020,07,05,00,01,11.60
2020,07,05,00,02,11.60
2020,07,05,00,03,11.60
2020,07,05,00,04,11.50
2020,07,05,00,05,11.50
2020,07,05,00,06,11.50
2020,07,05,00,07,11.40
2020,07,05,00,08,11.40
2020,07,05,00,09,11.40
2020,07,05,00,10,11.40
2020,07,05,00,11,11.40
2020,07,05,00,12,11.40
2020,07,05,00,13,11.30
2020,07,05,00,14,11.30
2020,07,05,00,15,11.30
2020,07,05,00,16,11.30
2020,07,05,00,17,11.30
2020,07,05,00,18,11.30
2020,07,05,00,19,11.20
2020,07,05,00,20,11.20
2020,07,05,00,21,11.20
2020,07,05,00,22,11.20
2020,07,05,00,23,11.20
2020,07,05,00,24,11.10
2020,07,05,00,25,11.10
2020,07,05,00,26,11.10
2020,07,05,00,27,11.10
2020,07,05,00,28,11.10
2020,07,05,00,29,11.00
2020,07,05,00,30,11.00
2020,07,05,00,31,11.00
2020,07,05,00,32,11.00
2020,07,05,00,33,10.90
2020,07,05,00,34,10.90
2020,07,05,00,35,10.90
2020,07,05,00,36,10.90
2020,07,05,00,37,10.90
2020,07,05,00,38,10.90
2020,07,05,00,39,10.90
2020,07,05,00,40,10.90
2020,07,05,00,41,10.90
2020,07,05,00,42,10.80
2020,07,05,00,43,10.80
2020,07,05,00,44,10.80
2020,07,05,00,45,10.80
2020,07,05,00,46,10.80
2020,07,05,00,47,10.80
2020,07,05,00,48,10.80
2020,07,05,00,49,10.70
2020,07,05,00,50,10.70
2020,07,05,00,51,10.70
2020,07,05,00,52,10.70
2020,07,05,00,53,10.70
2020,07,05,00,54,10.70
2020,07,05,00,55,10.70
2020,07,05,00,56,10.70
2020,07,05,00,57,10.70
2020,07,05,00,58,10.60
2020,07,05,00,59,10.60
2020,07,05,01,00,10.60
2020,07,05,01,01,10.60
2020,07,05,01,02,10.60
2020,07,05,01,03,10.60
2020,07,05,01,04,10.50
2020,07,05,01,05,10.50
2020,07,05,01,06,10.50
2020,07,05,01,07,10.50
2020,07,05,01,08,10.40
2020,07,05,01,09,10.40
2020,07,05,01,10,10.40
2020,07,05,01,11,10.40
2020,07,05,01,12,10.40
2020,07,05,01,13,10.40
2020,07,05,01,14,10.30
2020,07,05,01,15,10.30
2020,07,05,01,16,10.30
2020,07,05,01,17,10.30
2020,07,05,01,18,10.30
2020,07,05,01,19,10.30
2020,07,05,01,20,10.30
2020,07,05,01,21,10.30
2020,07,05,01,22,10.30
2020,07,05,01,23,10.20
2020,07,05,01,24,10.20
2020,07,05,01,25,10.20
2020,07,05,01,26,10.20
2020,07,05,01,27,10.20
2020,07,05,01,28,10.20
2020,07,05,01,29,10.10
2020,07,05,01,30,10.10
2020,07,05,01,31,10.10
2020,07,05,01,32,10.10
2020,07,05,01,33,10.10
2020,07,05,01,34,10.10
2020,07,05,01,35,10.10
2020,07,05,01,36,10.00
2020,07,05,01,37,10.00
2020,07,05,01,38,10.00
2020,07,05,01,39,10.00
2020,07,05,01,40,10.00
2020,07,05,01,41,9.90
2020,07,05,01,42,9.90
2020,07,05,01,43,9.90
2020,07,05,01,44,9.90
2020,07,05,01,45,9.90
2020,07,05,01,46,9.90
2020,07,05,01,47,9.90
2020,07,05,01,48,9.90
2020,07,05,01,49,9.90
2020,07,05,01,50,9.90
2020,07,05,01,51,9.80
2020,07,05,01,52,9.80
2020,07,05,01,53,9.80
2020,07,05,01,54,9.80
2020,07,05,01,55,9.80
2020,07,05,01,56,9.80
2020,07,05,01,57,9.80
2020,07,05,01,58,9.80
2020,07,05,01,59,9.70
2020,07,05,02,00,9.70
2020,07,05,02,01,9.70
2020,07,05,02,02,9.70
2020,07,05,02,03,9.70
2020,07,05,02,04,9.70
2020,07,05,02,05,9.60
2020,07,05,02,06,9.60
2020,07,05,02,07,9.60
2020,07,05,02,08,9.60
2020,07,05,02,09,9.60
2020,07,05,02,10,9.60
2020,07,05,02,11,9.60
2020,07,05,02,12,9.60
2020,07,05,02,13,9.60
2020,07,05,02,14,9.60
2020,07,05,02,15,9.60
2020,07,05,02,16,9.60
2020,07,05,02,17,9.50
2020,07,05,02,18,9.50
2020,07,05,02,19,9.50
2020,07,05,02,20,9.50
2020,07,05,02,21,9.50
2020,07,05,02,22,9.50
2020,07,05,02,23,9.50
2020,07,05,02,24,9.50
2020,07,05,02,25,9.40
2020,07,05,02,26,9.40
2020,07,05,02,27,9.40
2020,07,05,02,28,9.40
2020,07,05,02,29,9.40
2020,07,05,02,30,9.40
2020,07,05,02,31,9.40
2020,07,05,02,32,9.40
2020,07,05,02,33,9.40
2020,07,05,02,34,9.40
2020,07,05,02,35,9.40
2020,07,05,02,36,9.40
2020,07,05,02,37,9.40
2020,07,05,02,38,9.40
2020,07,05,02,39,9.40
2020,07,05,02,40,9.40
2020,07,05,02,41,9.40
2020,07,05,02,42,9.40
2020,07,05,02,43,9.40
2020,07,05,02,44,9.40
2020,07,05,02,45,9.40
2020,07,05,02,46,9.40
2020,07,05,02,47,9.40
2020,07,05,02,48,9.40
2020,07,05,02,49,9.40
2020,07,05,02,50,9.40
2020,07,05,02,51,9.40
2020,07,05,02,52,9.40
2020,07,05,02,53,9.30
2020,07,05,02,54,9.30
2020,07,05,02,55,9.40
2020,07,05,02,56,9.30
2020,07,05,02,57,9.40
2020,07,05,02,58,9.40
2020,07,05,02,59,9.40
2020,07,05,03,00,9.40
2020,07,05,03,01,9.40
2020,07,05,03,02,9.40
2020,07,05,03,03,9.40
2020,07,05,03,04,9.40
2020,07,05,03,05,9.40
2020,07,05,03,06,9.40
2020,07,05,03,07,9.30
2020,07,05,03,08,9.30
2020,07,05,03,09,9.30
2020,07,05,03,10,9.30
2020,07,05,03,11,9.30
2020,07,05,03,12,9.30
2020,07,05,03,13,9.30
2020,07,05,03,14,9.30
2020,07,05,03,15,9.40
2020,07,05,03,16,9.30
2020,07,05,03,17,9.40
2020,07,05,03,18,9.30
2020,07,05,03,19,9.30
2020,07,05,03,20,9.30
2020,07,05,03,21,9.30
2020,07,05,03,22,9.30
2020,07,05,03,23,9.30
2020,07,05,03,24,9.30
2020,07,05,03,25,9.30
2020,07,05,03,26,9.30
2020,07,05,03,27,9.30
2020,07,05,03,28,9.30
2020,07,05,03,29,9.30
2020,07,05,03,30,9.30
2020,07,05,03,31,9.20
2020,07,05,03,32,9.20
2020,07,05,03,33,9.20
2020,07,05,03,34,9.20
2020,07,05,03,35,9.20
2020,07,05,03,36,9.20
2020,07,05,03,37,9.20
2020,07,05,03,38,9.10
2020,07,05,03,39,9.10
2020,07,05,03,40,9.10
2020,07,05,03,41,9.10
2020,07,05,03,42,9.10
2020,07,05,03,43,9.10
2020,07,05,03,44,9.00
2020,07,05,03,45,9.00
2020,07,05,03,46,9.00
2020,07,05,03,47,9.00
2020,07,05,03,48,8.90
2020,07,05,03,49,8.90
2020,07,05,03,50,8.90
2020,07,05,03,51,8.90
2020,07,05,03,52,8.90
2020,07,05,03,53,8.90
2020,07,05,03,54,8.90
2020,07,05,03,55,8.90
2020,07,05,03,56,8.90
2020,07,05,03,57,8.80
2020,07,05,03,58,8.80
2020,07,05,03,59,8.80
2020,07,05,04,00,8.80
2020,07,05,04,01,8.80
2020,07,05,04,02,8.80
2020,07,05,04,03,8.80
2020,07,05,04,04,8.80
2020,07,05,04,05,8.80
2020,07,05,04,06,8.80
2020,07,05,04,07,8.80
2020,07,05,04,08,8.80
2020,07,05,04,09,8.80
2020,07,05,04,10,8.70
2020,07,05,04,11,8.70
2020,07,05,04,12,8.70
2020,07,05,04,13,8.70
2020,07,05,04,14,8.70
2020,07,05,04,15,8.70
2020,07,05,04,16,8.70
2020,07,05,04,17,8.70
2020,07,05,04,18,8.70
2020,07,05,04,19,8.60
2020,07,05,04,20,8.70
2020,07,05,04,21,8.60
2020,07,05,04,22,8.60
2020,07,05,04,23,8.60
2020,07,05,04,24,8.60
2020,07,05,04,25,8.60
2020,07,05,04,26,8.60
2020,07,05,04,27,8.60
2020,07,05,04,28,8.60
2020,07,05,04,29,8.60
2020,07,05,04,30,8.60
2020,07,05,04,31,8.50
2020,07,05,04,32,8.50
2020,07,05,04,33,8.50
2020,07,05,04,34,8.50
2020,07,05,04,35,8.50
2020,07,05,04,36,8.50
2020,07,05,04,37,8.50
2020,07,05,04,38,8.50
2020,07,05,04,39,8.50
2020,07,05,04,40,8.50
2020,07,05,04,41,8.50
2020,07,05,04,42,8.50
2020,07,05,04,43,8.50
2020,07,05,04,44,8.50
2020,07,05,04,45,8.50
2020,07,05,04,46,8.50
2020,07,05,04,47,8.50
2020,07,05,04,48,8.50
2020,07,05,04,49,8.50
2020,07,05,04,50,8.50
2020,07,05,04,51,8.50
2020,07,05,04,52,8.50
2020,07,05,04,53,8.50
2020,07,05,04,54,8.50
2020,07,05,04,55,8.50
2020,07,05,04,56,8.50
2020,07,05,04,57,8.50
2020,07,05,04,58,8.50
2020,07,05,04,59,8.50
2020,07,05,05,00,8.50
2020,07,05,05,01,8.50
2020,07,05,05,02,8.50
2020,07,05,05,03,8.60
2020,07,05,05,04,8.60
2020,07,05,05,05,8.60
2020,07,05,05,06,8.60
2020,07,05,05,07,8.60
2020,07,05,05,08,8.60
2020,07,05,05,09,8.60
2020,07,05,05,10,8.60
2020,07,05,05,11,8.60
2020,07,05,05,12,8.60
2020,07,05,05,13,8.50
2020,07,05,05,14,8.60
2020,07,05,05,15,8.60
2020,07,05,05,16,8.60
2020,07,05,05,17,8.60
2020,07,05,05,18,8.60
2020,07,05,05,19,8.50
2020,07,05,05,20,8.50
2020,07,05,05,21,8.60
2020,07,05,05,22,8.60
2020,07,05,05,23,8.60
2020,07,05,05,24,8.50
2020,07,05,05,25,8.60
2020,07,05,05,26,8.50
2020,07,05,05,27,8.50
2020,07,05,05,28,8.50
2020,07,05,05,29,8.50
2020,07,05,05,30,8.50
2020,07,05,05,31,8.50
2020,07,05,05,32,8.50
2020,07,05,05,33,8.50
2020,07,05,05,34,8.50
2020,07,05,05,35,8.50
2020,07,05,05,36,8.50
2020,07,05,05,37,8.50
2020,07,05,05,38,8.50
2020,07,05,05,39,8.40
2020,07,05,05,40,8.40
2020,07,05,05,41,8.40
2020,07,05,05,42,8.40
2020,07,05,05,43,8.40
2020,07,05,05,44,8.40
2020,07,05,05,45,8.40
2020,07,05,05,46,8.40
2020,07,05,05,47,8.40
2020,07,05,05,48,8.40
2020,07,05,05,49,8.30
2020,07,05,05,50,8.30
2020,07,05,05,51,8.30
2020,07,05,05,52,8.40
2020,07,05,05,53,8.40
2020,07,05,05,54,8.40
2020,07,05,05,55,8.40
2020,07,05,05,56,8.40
2020,07,05,05,57,8.40
2020,07,05,05,58,8.40
2020,07,05,05,59,8.40
2020,07,05,06,00,8.40
2020,07,05,06,01,8.40
2020,07,05,06,02,8.40
2020,07,05,06,03,8.40
2020,07,05,06,04,8.40
2020,07,05,06,05,8.40
2020,07,05,06,06,8.40
2020,07,05,06,07,8.40
2020,07,05,06,08,8.40
2020,07,05,06,09,8.40
2020,07,05,06,10,8.40
2020,07,05,06,11,8.40
2020,07,05,06,12,8.40
2020,07,05,06,13,8.40
2020,07,05,06,14,8.50
2020,07,05,06,15,8.50
2020,07,05,06,16,8.50
2020,07,05,06,17,8.50
2020,07,05,06,18,8.50
2020,07,05,06,19,8.50
2020,07,05,06,20,8.60
2020,07,05,06,21,8.60
2020,07,05,06,22,8.60
2020,07,05,06,23,8.60
2020,07,05,06,24,8.60
2020,07,05,06,25,8.60
2020,07,05,06,26,8.60
2020,07,05,06,27,8.70
2020,07,05,06,28,8.70
2020,07,05,06,29,8.70
2020,07,05,06,30,8.70
2020,07,05,06,31,8.80
2020,07,05,06,32,8.80
2020,07,05,06,33,8.80
2020,07,05,06,34,8.80
2020,07,05,06,35,8.90
2020,07,05,06,36,8.90
2020,07,05,06,37,8.90
2020,07,05,06,38,8.90
2020,07,05,06,39,9.00
2020,07,05,06,40,9.10
2020,07,05,06,41,9.10
2020,07,05,06,42,9.10
2020,07,05,06,43,9.10
2020,07,05,06,44,9.20
2020,07,05,06,45,9.20
2020,07,05,06,46,9.20
2020,07,05,06,47,9.20
2020,07,05,06,48,9.30
2020,07,05,06,49,9.30
2020,07,05,06,50,9.30
2020,07,05,06,51,9.30
2020,07,05,06,52,9.30
2020,07,05,06,53,9.40
2020,07,05,06,54,9.40
2020,07,05,06,55,9.40
2020,07,05,06,56,9.40
2020,07,05,06,57,9.40
2020,07,05,06,58,9.50
2020,07,05,06,59,9.50
2020,07,05,07,00,9.50
2020,07,05,07,01,9.60
2020,07,05,07,02,9.60
2020,07,05,07,03,9.60
2020,07,05,07,04,9.70
2020,07,05,07,05,9.70
2020,07,05,07,06,9.80
2020,07,05,07,07,9.80
2020,07,05,07,08,9.90
2020,07,05,07,09,9.90
2020,07,05,07,10,9.90
2020,07,05,07,11,10.00
2020,07,05,07,12,10.00
2020,07,05,07,13,10.10
2020,07,05,07,14,10.10
2020,07,05,07,15,10.20
2020,07,05,07,16,10.20
2020,07,05,07,17,10.20
2020,07,05,07,18,10.30
2020,07,05,07,19,10.40
2020,07,05,07,20,10.40
2020,07,05,07,21,10.40
2020,07,05,07,22,10.40
2020,07,05,07,23,10.40
2020,07,05,07,24,10.40
2020,07,05,07,25,10.50
2020,07,05,07,26,10.80
2020,07,05,07,27,10.80
2020,07,05,07,28,10.90
2020,07,05,07,29,10.90
2020,07,05,07,30,11.00
2020,07,05,07,31,11.00
2020,07,05,07,32,11.10
2020,07,05,07,33,11.10
2020,07,05,07,34,11.20
2020,07,05,07,35,11.20
2020,07,05,07,36,11.30
2020,07,05,07,37,11.30
2020,07,05,07,38,11.40
2020,07,05,07,39,11.40
2020,07,05,07,40,11.40
2020,07,05,07,41,11.50
2020,07,05,07,42,11.50
2020,07,05,07,43,11.60
2020,07,05,07,44,11.60
2020,07,05,07,45,11.60
2020,07,05,07,46,11.70
2020,07,05,07,47,11.70
2020,07,05,07,48,11.70
2020,07,05,07,49,11.80
2020,07,05,07,50,11.80
2020,07,05,07,51,11.80
2020,07,05,07,52,11.90
2020,07,05,07,53,11.90
2020,07,05,07,54,11.90
2020,07,05,07,55,12.00
2020,07,05,07,56,12.10
2020,07,05,07,57,12.10
2020,07,05,07,58,12.10
2020,07,05,07,59,12.20
2020,07,05,08,00,12.20
2020,07,05,08,01,12.20
2020,07,05,08,02,12.20
2020,07,05,08,03,12.20
2020,07,05,08,04,12.30
2020,07,05,08,05,12.30
2020,07,05,08,06,12.30
2020,07,05,08,07,12.30
2020,07,05,08,08,12.40
2020,07,05,08,09,12.40
2020,07,05,08,10,12.40
2020,07,05,08,11,12.40
2020,07,05,08,12,12.50
2020,07,05,08,13,12.50
2020,07,05,08,14,12.60
2020,07,05,08,15,12.60
2020,07,05,08,16,12.70
2020,07,05,08,17,12.70
2020,07,05,08,18,12.80
2020,07,05,08,19,12.80
2020,07,05,08,20,12.80
2020,07,05,08,21,12.80
2020,07,05,08,22,12.90
2020,07,05,08,23,12.90
2020,07,05,08,24,12.90
2020,07,05,08,25,13.00
2020,07,05,08,26,13.00
2020,07,05,08,27,13.10
2020,07,05,08,28,13.10
2020,07,05,08,29,13.10
2020,07,05,08,30,13.20
2020,07,05,08,31,13.20
2020,07,05,08,32,13.30
2020,07,05,08,33,13.30
2020,07,05,08,34,13.40
2020,07,05,08,35,13.50
2020,07,05,08,36,13.50
2020,07,05,08,37,13.60
2020,07,05,08,38,13.70
2020,07,05,08,39,13.70
2020,07,05,08,40,13.80
2020,07,05,08,41,13.90
2020,07,05,08,42,13.90
2020,07,05,08,43,14.00
2020,07,05,08,44,14.10
2020,07,05,08,45,14.20
2020,07,05,08,46,14.30
2020,07,05,08,47,14.30
2020,07,05,08,48,14.40
2020,07,05,08,49,14.50
2020,07,05,08,50,14.60
2020,07,05,08,51,14.70
2020,07,05,08,52,14.80
2020,07,05,08,53,14.90
2020,07,05,08,54,15.00
2020,07,05,08,55,15.10
2020,07,05,08,56,15.20
2020,07,05,08,57,15.30
2020,07,05,08,58,15.40
2020,07,05,08,59,15.50
2020,07,05,09,00,15.60
2020,07,05,09,01,15.70
2020,07,05,09,02,15.80
2020,07,05,09,03,15.90
2020,07,05,09,04,16.00
2020,07,05,09,05,16.10
2020,07,05,09,06,16.20
2020,07,05,09,07,16.30
2020,07,05,09,08,16.40
2020,07,05,09,09,16.40
2020,07,05,09,10,16.50
2020,07,05,09,11,16.50
2020,07,05,09,12,16.60
2020,07,05,09,13,16.70
2020,07,05,09,14,16.70
2020,07,05,09,15,16.80
2020,07,05,09,16,16.80
2020,07,05,09,17,16.90
2020,07,05,09,18,17.00
2020,07,05,09,19,17.00
2020,07,05,09,20,17.10
2020,07,05,09,21,17.10
2020,07,05,09,22,17.20
2020,07,05,09,23,17.30
2020,07,05,09,24,17.30
2020,07,05,09,25,17.30
2020,07,05,09,26,17.40
2020,07,05,09,27,17.40
2020,07,05,09,28,17.50
2020,07,05,09,29,17.50
2020,07,05,09,30,17.60
2020,07,05,09,31,17.60
2020,07,05,09,32,17.70
2020,07,05,09,33,17.70
2020,07,05,09,34,17.70
2020,07,05,09,35,17.80
2020,07,05,09,36,17.90
2020,07,05,09,37,18.00
2020,07,05,09,38,18.10
2020,07,05,09,39,18.20
2020,07,05,09,40,18.30
2020,07,05,09,41,18.40
2020,07,05,09,42,18.50
2020,07,05,09,43,18.50
2020,07,05,09,44,18.60
2020,07,05,09,45,18.70
2020,07,05,09,46,18.80
2020,07,05,09,47,18.80
2020,07,05,09,48,18.80
2020,07,05,09,49,18.80
2020,07,05,09,50,18.90
2020,07,05,09,51,18.90
2020,07,05,09,52,18.90
2020,07,05,09,53,18.90
2020,07,05,09,54,18.90
2020,07,05,09,55,18.90
2020,07,05,09,56,19.00
2020,07,05,09,57,19.00
2020,07,05,09,58,19.00
2020,07,05,09,59,18.90
2020,07,05,10,00,18.90
2020,07,05,10,01,18.90
2020,07,05,10,02,19.00
2020,07,05,10,03,19.00
2020,07,05,10,04,19.00
2020,07,05,10,05,19.00
2020,07,05,10,06,19.00
2020,07,05,10,07,19.00
2020,07,05,10,08,19.00
2020,07,05,10,09,19.00
2020,07,05,10,10,19.00
2020,07,05,10,11,19.00
2020,07,05,10,12,19.00
2020,07,05,10,13,19.00
2020,07,05,10,14,19.00
2020,07,05,10,15,19.00
2020,07,05,10,16,19.10
2020,07,05,10,17,19.10
2020,07,05,10,18,19.20
2020,07,05,10,19,19.30
2020,07,05,10,20,19.30
2020,07,05,10,21,19.40
2020,07,05,10,22,19.40
2020,07,05,10,23,19.40
2020,07,05,10,24,19.40
2020,07,05,10,25,19.40
2020,07,05,10,26,19.40
2020,07,05,10,27,19.30
2020,07,05,10,28,19.10
2020,07,05,10,29,19.00
2020,07,05,10,30,18.90
2020,07,05,10,31,18.80
2020,07,05,10,32,18.80
2020,07,05,10,33,18.80
2020,07,05,10,34,18.80
2020,07,05,10,35,18.80
2020,07,05,10,36,18.70
2020,07,05,10,37,18.70
2020,07,05,10,38,18.70
2020,07,05,10,39,18.80
2020,07,05,10,40,18.80
2020,07,05,10,41,18.80
2020,07,05,10,42,18.90
2020,07,05,10,43,18.90
2020,07,05,10,44,19.00
2020,07,05,10,45,19.10
2020,07,05,10,46,19.10
2020,07,05,10,47,19.20
2020,07,05,10,48,19.20
2020,07,05,10,49,19.20
2020,07,05,10,50,19.30
2020,07,05,10,51,19.30
2020,07,05,10,52,19.40
2020,07,05,10,53,19.40
2020,07,05,10,54,19.50
2020,07,05,10,55,19.50
2020,07,05,10,56,19.50
2020,07,05,10,57,19.50
2020,07,05,10,58,19.50
2020,07,05,10,59,19.50
2020,07,05,11,00,19.50
2020,07,05,11,01,19.40
2020,07,05,11,02,19.40
2020,07,05,11,03,19.40
2020,07,05,11,04,19.40
2020,07,05,11,05,19.50
2020,07,05,11,06,19.50
2020,07,05,11,07,19.50
2020,07,05,11,08,19.60
2020,07,05,11,09,19.60
2020,07,05,11,10,19.60
2020,07,05,11,11,19.60
2020,07,05,11,12,19.70
2020,07,05,11,13,19.70
2020,07,05,11,14,19.70
2020,07,05,11,15,19.70
2020,07,05,11,16,19.70
2020,07,05,11,17,19.70
2020,07,05,11,18,19.70
2020,07,05,11,19,19.80
2020,07,05,11,20,19.80
2020,07,05,11,21,19.90
2020,07,05,11,22,19.90
2020,07,05,11,23,20.00
2020,07,05,11,24,20.00
2020,07,05,11,25,20.10
2020,07,05,11,26,20.10
2020,07,05,11,27,20.20
2020,07,05,11,28,20.30
2020,07,05,11,29,20.40
2020,07,05,11,30,20.50
2020,07,05,11,31,20.60
2020,07,05,11,32,20.70
2020,07,05,11,33,20.70
2020,07,05,11,34,20.80
2020,07,05,11,35,20.90
2020,07,05,11,36,20.90
2020,07,05,11,37,20.90
2020,07,05,11,38,20.90
2020,07,05,11,39,20.90
2020,07,05,11,40,21.00
2020,07,05,11,41,20.90
2020,07,05,11,42,20.90
2020,07,05,11,43,20.90
2020,07,05,11,44,20.90
2020,07,05,11,45,20.90
2020,07,05,11,46,20.90
2020,07,05,11,47,21.00
2020,07,05,11,48,21.00
2020,07,05,11,49,21.00
2020,07,05,11,50,21.10
2020,07,05,11,51,21.10
2020,07,05,11,52,21.10
2020,07,05,11,53,21.10
2020,07,05,11,54,21.20
2020,07,05,11,55,21.20
2020,07,05,11,56,21.20
2020,07,05,11,57,21.20
2020,07,05,11,58,21.30
2020,07,05,11,59,21.30
2020,07,05,12,00,21.30
2020,07,05,12,01,21.40
2020,07,05,12,02,21.40
2020,07,05,12,03,21.50
2020,07,05,12,04,21.50
2020,07,05,12,05,21.50
2020,07,05,12,06,21.60
2020,07,05,12,07,21.60
2020,07,05,12,08,21.70
2020,07,05,12,09,21.70
2020,07,05,12,10,21.80
2020,07,05,12,11,21.80
2020,07,05,12,12,21.90
2020,07,05,12,13,21.90
2020,07,05,12,14,21.90
2020,07,05,12,15,21.90
2020,07,05,12,16,22.00
2020,07,05,12,17,22.00
2020,07,05,12,18,22.00
2020,07,05,12,19,22.00
2020,07,05,12,20,22.00
2020,07,05,12,21,21.90
2020,07,05,12,22,21.90
2020,07,05,12,23,21.90
2020,07,05,12,24,22.00
2020,07,05,12,25,22.00
2020,07,05,12,26,22.10
2020,07,05,12,27,22.10
2020,07,05,12,28,22.10
2020,07,05,12,29,22.10
2020,07,05,12,30,22.20
2020,07,05,12,31,22.20
2020,07,05,12,32,22.30
2020,07,05,12,33,22.30
2020,07,05,12,34,22.30
2020,07,05,12,35,22.40
2020,07,05,12,36,22.40
2020,07,05,12,37,22.40
2020,07,05,12,38,22.40
2020,07,05,12,39,22.50
2020,07,05,12,40,22.50
2020,07,05,12,41,22.50
2020,07,05,12,42,22.50
2020,07,05,12,43,22.50
2020,07,05,12,44,22.50
2020,07,05,12,45,22.60
2020,07,05,12,46,22.60
2020,07,05,12,47,22.60
2020,07,05,12,48,22.70
2020,07,05,12,49,22.80
2020,07,05,12,50,22.80
2020,07,05,12,51,22.90
2020,07,05,12,52,22.90
2020,07,05,12,53,23.00
2020,07,05,12,54,22.90
2020,07,05,12,55,22.90
2020,07,05,12,56,22.90
2020,07,05,12,57,22.80
2020,07,05,12,58,22.70
2020,07,05,12,59,22.70
2020,07,05,13,00,22.70
2020,07,05,13,01,22.60
2020,07,05,13,02,22.60
2020,07,05,13,03,22.60
2020,07,05,13,04,22.60
2020,07,05,13,05,22.60
2020,07,05,13,06,22.60
2020,07,05,13,07,22.70
2020,07,05,13,08,22.70
2020,07,05,13,09,22.70
2020,07,05,13,10,22.60
2020,07,05,13,11,22.60
2020,07,05,13,12,22.60
2020,07,05,13,13,22.60
2020,07,05,13,14,22.60
2020,07,05,13,15,22.60
2020,07,05,13,16,22.60
2020,07,05,13,17,22.60
2020,07,05,13,18,22.60
2020,07,05,13,19,22.70
2020,07,05,13,20,22.70
2020,07,05,13,21,22.80
2020,07,05,13,22,22.80
2020,07,05,13,23,22.80
2020,07,05,13,24,22.80
2020,07,05,13,25,22.90
2020,07,05,13,26,22.80
2020,07,05,13,27,22.90
2020,07,05,13,28,22.90
2020,07,05,13,29,22.80
2020,07,05,13,30,22.80
2020,07,05,13,31,22.70
2020,07,05,13,32,22.70
2020,07,05,13,33,22.70
2020,07,05,13,34,22.70
2020,07,05,13,35,22.70
2020,07,05,13,36,22.70
2020,07,05,13,37,22.70
2020,07,05,13,38,22.70
2020,07,05,13,39,22.80
2020,07,05,13,40,22.80
2020,07,05,13,41,22.80
2020,07,05,13,42,22.90
2020,07,05,13,43,22.90
2020,07,05,13,44,23.00
2020,07,05,13,45,23.00
2020,07,05,13,46,23.10
2020,07,05,13,47,23.10
2020,07,05,13,48,23.20
2020,07,05,13,49,23.20
2020,07,05,13,50,23.20
2020,07,05,13,51,23.30
2020,07,05,13,52,23.30
2020,07,05,13,53,23.30
2020,07,05,13,54,23.40
2020,07,05,13,55,23.40
2020,07,05,13,56,23.40
2020,07,05,13,57,23.30
2020,07,05,13,58,23.30
2020,07,05,13,59,23.30
2020,07,05,14,00,23.30
2020,07,05,14,01,23.20
2020,07,05,14,02,23.30
2020,07,05,14,03,23.20
2020,07,05,14,04,23.20
2020,07,05,14,05,23.20
2020,07,05,14,06,23.20
2020,07,05,14,07,23.20
2020,07,05,14,08,23.20
2020,07,05,14,09,23.20
2020,07,05,14,10,23.20
2020,07,05,14,11,23.10
2020,07,05,14,12,23.10
2020,07,05,14,13,23.00
2020,07,05,14,14,22.90
2020,07,05,14,15,22.80
2020,07,05,14,16,22.80
2020,07,05,14,17,22.80
2020,07,05,14,18,22.80
2020,07,05,14,19,22.80
2020,07,05,14,20,22.80
2020,07,05,14,21,22.80
2020,07,05,14,22,22.90
2020,07,05,14,23,22.90
2020,07,05,14,24,22.90
2020,07,05,14,25,23.00
2020,07,05,14,26,23.00
2020,07,05,14,27,23.00
2020,07,05,14,28,23.00
2020,07,05,14,29,23.00
2020,07,05,14,30,23.00
2020,07,05,14,31,23.00
2020,07,05,14,32,23.10
2020,07,05,14,33,23.00
2020,07,05,14,34,23.00
2020,07,05,14,35,22.80
2020,07,05,14,36,22.70
2020,07,05,14,37,22.60
2020,07,05,14,38,22.60
2020,07,05,14,39,22.60
2020,07,05,14,40,22.70
2020,07,05,14,41,22.70
2020,07,05,14,42,22.70
2020,07,05,14,43,22.80
2020,07,05,14,44,22.80
2020,07,05,14,45,22.80
2020,07,05,14,46,22.80
2020,07,05,14,47,22.80
2020,07,05,14,48,22.90
2020,07,05,14,49,22.90
2020,07,05,14,50,23.00
2020,07,05,14,51,23.10
2020,07,05,14,52,23.10
2020,07,05,14,53,23.20
2020,07,05,14,54,23.20
2020,07,05,14,55,23.20
2020,07,05,14,56,23.20
2020,07,05,14,57,23.30
2020,07,05,14,58,23.30
2020,07,05,14,59,23.30
2020,07,05,15,00,23.30
2020,07,05,15,01,23.40
2020,07,05,15,02,23.40
2020,07,05,15,03,23.40
2020,07,05,15,04,23.50
2020,07,05,15,05,23.50
2020,07,05,15,06,23.50
2020,07,05,15,07,23.60
2020,07,05,15,08,23.60
2020,07,05,15,09,23.60
2020,07,05,15,10,23.60
2020,07,05,15,11,23.60
2020,07,05,15,12,23.60
2020,07,05,15,13,23.60
2020,07,05,15,14,23.60
2020,07,05,15,15,23.50
2020,07,05,15,16,23.40
2020,07,05,15,17,23.30
2020,07,05,15,18,23.20
2020,07,05,15,19,23.20
2020,07,05,15,20,23.10
2020,07,05,15,21,23.00
2020,07,05,15,22,23.00
2020,07,05,15,23,23.10
2020,07,05,15,24,23.10
2020,07,05,15,25,23.20
2020,07,05,15,26,23.30
2020,07,05,15,27,23.40
2020,07,05,15,28,23.50
2020,07,05,15,29,23.60
2020,07,05,15,30,23.60
2020,07,05,15,31,23.70
2020,07,05,15,32,23.70
2020,07,05,15,33,23.80
2020,07,05,15,34,23.80
2020,07,05,15,35,23.80
2020,07,05,15,36,23.80
2020,07,05,15,37,23.80
2020,07,05,15,38,23.80
2020,07,05,15,39,23.90
2020,07,05,15,40,23.90
2020,07,05,15,41,23.80
2020,07,05,15,42,23.70
2020,07,05,15,43,23.70
2020,07,05,15,44,23.60
2020,07,05,15,45,23.60
2020,07,05,15,46,23.60
2020,07,05,15,47,23.60
2020,07,05,15,48,23.60
2020,07,05,15,49,23.70
2020,07,05,15,50,23.70
2020,07,05,15,51,23.70
2020,07,05,15,52,23.80
2020,07,05,15,53,23.80
2020,07,05,15,54,23.80
2020,07,05,15,55,23.80
2020,07,05,15,56,23.90
2020,07,05,15,57,23.90
2020,07,05,15,58,23.90
2020,07,05,15,59,23.80
2020,07,05,16,00,23.90
2020,07,05,16,01,23.80
2020,07,05,16,02,23.90
2020,07,05,16,03,23.90
2020,07,05,16,04,23.90
2020,07,05,16,05,23.90
2020,07,05,16,06,23.90
2020,07,05,16,07,24.00
2020,07,05,16,08,24.00
2020,07,05,16,09,24.10
2020,07,05,16,10,24.10
2020,07,05,16,11,24.10
2020,07,05,16,12,24.10
2020,07,05,16,13,24.10
2020,07,05,16,14,24.00
2020,07,05,16,15,23.90
2020,07,05,16,16,23.90
2020,07,05,16,17,23.90
2020,07,05,16,18,23.90
2020,07,05,16,19,24.00
2020,07,05,16,20,24.00
2020,07,05,16,21,23.90
2020,07,05,16,22,23.80
2020,07,05,16,23,23.80
2020,07,05,16,24,23.70
2020,07,05,16,25,23.60
2020,07,05,16,26,23.40
2020,07,05,16,27,23.30
2020,07,05,16,28,23.10
2020,07,05,16,29,23.00
2020,07,05,16,30,22.90
2020,07,05,16,31,22.80
2020,07,05,16,32,22.70
2020,07,05,16,33,22.60
2020,07,05,16,34,22.50
2020,07,05,16,35,22.50
2020,07,05,16,36,22.60
2020,07,05,16,37,22.70
2020,07,05,16,38,22.70
2020,07,05,16,39,22.80
2020,07,05,16,40,22.80
2020,07,05,16,41,22.90
2020,07,05,16,42,23.00
2020,07,05,16,43,23.10
2020,07,05,16,44,23.20
2020,07,05,16,45,23.20
2020,07,05,16,46,23.30
2020,07,05,16,47,23.30
2020,07,05,16,48,23.30
2020,07,05,16,49,23.30
2020,07,05,16,50,23.30
2020,07,05,16,51,23.20
2020,07,05,16,52,23.20
2020,07,05,16,53,23.20
2020,07,05,16,54,23.20
2020,07,05,16,55,23.20
2020,07,05,16,56,23.10
2020,07,05,16,57,23.00
2020,07,05,16,58,22.90
2020,07,05,16,59,22.80
2020,07,05,17,00,22.70
2020,07,05,17,01,22.70
2020,07,05,17,02,22.60
2020,07,05,17,03,22.60
2020,07,05,17,04,22.60
2020,07,05,17,05,22.60
2020,07,05,17,06,22.70
2020,07,05,17,07,22.70
2020,07,05,17,08,22.70
2020,07,05,17,09,22.80
2020,07,05,17,10,22.80
2020,07,05,17,11,22.80
2020,07,05,17,12,22.70
2020,07,05,17,13,22.70
2020,07,05,17,14,22.70
2020,07,05,17,15,22.60
2020,07,05,17,16,22.50
2020,07,05,17,17,22.50
2020,07,05,17,18,22.50
2020,07,05,17,19,22.50
2020,07,05,17,20,22.50
2020,07,05,17,21,22.40
2020,07,05,17,22,22.40
2020,07,05,17,23,22.30
2020,07,05,17,24,22.30
2020,07,05,17,25,22.20
2020,07,05,17,26,22.20
2020,07,05,17,27,22.10
2020,07,05,17,28,22.10
2020,07,05,17,29,22.10
2020,07,05,17,30,22.00
2020,07,05,17,31,21.90
2020,07,05,17,32,21.90
2020,07,05,17,33,21.80